Temp
-6 -6 -7 -7 -7 -7 -8 -7 -8 -8 -8 -9 -9 -9 -8 -7 -6 -7 -6 -6 -6 -6 -5 -5 -6 -6 -6 -7 -6 -6 -7 -6 -6 -6 -6 -6 -6 -6 -6 -6 -6 -6 -6 -6 -6 -6 -6 -6 -6
-6 -7 -7 -9 -8 -7 -7 -7 -8 -7 -7 -8 -10 -9 -8 -8 -8 -7 -7 -6 -6 -6 -6 -6 -7 -7 -7 -7 -7 -7 -7 -7 -7 -6 -6 -6 -6 -6 -6 -6 -6 -6 -6 -6 -6 -6 -6 -6 -6
-6 -7 -7 -8 -8 -8 -8 -9 -8 -7 -7 -7 -10 -9 -8 -8 -7 -7 -7 -6 -6 -6 -6 -7 -8 -8 -8 -8 -8 -7 -7 -7 -7 -7 -7 -7 -7 -7 -7 -7 -7 -7 -7 -7 -7 -6 -6 -6 -6
-7 -7 -7 -7 -8 -7 -7 -8 -9 -8 -8 -8 -9 -9 -8 -8 -7 -7 -7 -7 -7 -7 -7 -8 -8 -9 -9 -8 -8 -9 -8 -8 -8 -8 -8 -8 -7 -8 -7 -7 -7 -7 -7 -7 -7 -7 -7 -7 -7
-7 -7 -7 -7 -8 -8 -7 -8 -9 -9 -8 -8 -8 -8 -7 -8 -7 -7 -7 -7 -7 -7 -8 -8 -8 -9 -9 -9 -9 -9 -9 -9 -9 -8 -8 -8 -8 -8 -8 -8 -8 -8 -8 -8 -8 -7 -7 -8 -7
-7 -7 -7 -7 -7 -8 -8 -9 -9 -9 -9 -8 -8 -8 -7 -7 -7 -7 -7 -7 -8 -8 -8 -8 -8 -8 -9 -9 -9 -9 -9 -9 -9 -9 -9 -8 -8 -8 -8 -8 -8 -8 -8 -8 -8 -8 -8 -8 -8
-7 -7 -7 -7 -8 -8 -8 -9 -8 -8 -9 -8 -9 -7 -7 -7 -7 -7 -7 -7 -8 -8 -8 -8 -8 -9 -9 -9 -9 -9 -9 -9 -9 -9 -9 -8 -9 -8 -8 -8 -8 -8 -8 -8 -8 -8 -8 -8 -8
-8 -7 -8 -8 -9 -9 -10 -10 -9 -9 -9 -9 -8 -8 -7 -8 -8 -7 -7 -8 -8 -8 -8 -9 -9 -9 -9 -9 -9 -9 -9 -9 -9 -9 -9 -9 -9 -9 -9 -9 -9 -8 -8 -9 -8 -8 -8 -8 -8
-7 -7 -8 -9 -9 -9 -9 -10 -9 -9 -9 -8 -8 -7 -7 -7 -8 -8 -9 -9 -8 -9 -8 -9 -9 -9 -9 -9 -10 -10 -10 -10 -10 -10 -10 -10 -9 -9 -9 -9 -9 -9 -9 -9 -9 -9 -9 -9 -9
-7 -6 -7 -9 -10 -9 -9 -10 -9 -10 -9 -8 -8 -9 -8 -8 -8 -8 -8 -8 -8 -8 -8 -9 -9 -9 -9 -10 -10 -10 -10 -11 -11 -10 -10 -10 -10 -10 -10 -10 -10 -10 -10 -10 -9 -9 -9 -9 -9
-6 -6 -8 -9 -10 -10 -9 -9 -10 -9 -9 -7 -9 -9 -9 -8 -8 -8 -8 -8 -8 -8 -9 -9 -9 -9 -10 -10 -10 -10 -10 -10 -11 -10 -10 -10 -10 -10 -10 -10 -10 -10 -10 -10 -10 -10 -10 -10 -10
-7 -7 -8 -9 -10 -10 -10 -10 -10 -10 -9 -7 -9 -10 -9 -8 -8 -9 -9 -9 -9 -9 -9 -9 -9 -9 -10 -10 -10 -10 -10 -11 -11 -10 -10 -10 -10 -10 -10 -9 -9 -9 -10 -10 -10 -10 -10 -10 -10
-7 -7 -8 -9 -10 -9 -9 -10 -9 -10 -9 -8 -9 -9 -9 -9 -9 -10 -10 -10 -10 -10 -10 -10 -10 -10 -10 -10 -10 -11 -11 -11 -11 -11 -11 -11 -10 -10 -10 -10 -10 -10 -10 -10 -10 -10 -10 -10 -10
-7 -7 -7 -9 -9 -8 -8 -9 -8 -9 -9 -9 -9 -10 -9 -8 -9 -10 -11 -11 -11 -11 -11 -11 -11 -11 -11 -11 -11 -11 -11 -11 -11 -11 -11 -11 -11 -11 -10 -10 -11 -11 -11 -10 -11 -11 -11 -11 -11
-7 -7 -7 -8 -8 -8 -8 -8 -9 -9 -9 -9 -10 -9 -8 -9 -10 -10 -11 -11 -12 -12 -11 -11 -11 -11 -11 -11 -11 -12 -11 -11 -11 -11 -11 -11 -11 -11 -11 -11 -11 -11 -11 -10 -11 -11 -11 -11 -12
-7 -7 -7 -8 -9 -9 -9 -9 -9 -9 -9 -10 -9 -9 -9 -10 -10 -11 -11 -12 -11 -11 -11 -11 -12 -12 -12 -12 -12 -11 -11 -12 -12 -11 -11 -11 -11 -11 -11 -11 -11 -11 -11 -11 -11 -11 -12 -11 -12
-7 -7 -8 -8 -9 -9 -9 -9 -9 -9 -9 -10 -9 -9 -10 -9 -10 -11 -11 -12 -11 -11 -11 -12 -12 -12 -11 -12 -12 -12 -11 -11 -11 -11 -11 -11 -11 -11 -11 -11 -11 -11 -12 -12 -12 -12 -12 -12 -13
-8 -9 -9 -10 -10 -10 -9 -9 -9 -9 -10 -9 -9 -10 -10 -10 -10 -10 -11 -11 -11 -11 -12 -12 -12 -12 -11 -12 -11 -11 -11 -11 -11 -11 -11 -11 -11 -11 -12 -12 -12 -12 -12 -12 -13 -13 -13 -13 -13
-9 -9 -8 -9 -11 -11 -11 -10 -10 -10 -9 -10 -10 -10 -10 -10 -10 -11 -11 -11 -11 -12 -12 -12 -12 -12 -12 -12 -12 -12 -11 -11 -11 -11 -12 -12 -12 -12 -12 -12 -12 -13 -13 -13 -13 -13 -13 -13 -13
-9 -10 -9 -10 -10 -11 -10 -10 -10 -10 -10 -10 -10 -10 -10 -11 -11 -11 -11 -11 -12 -12 -12 -12 -12 -12 -12 -12 -12 -12 -11 -12 -12 -12 -12 -12 -12 -12 -12 -13 -13 -14 -14 -13 -14 -13 -13 -13 -13
-9 -9 -10 -10 -10 -10 -10 -11 -11 -10 -10 -10 -10 -10 -10 -11 -11 -11 -12 -12 -12 -12 -12 -12 -12 -12 -12 -12 -12 -12 -12 -12 -12 -12 -12 -13 -13 -13 -14 -14 -15 -15 -15 -14 -14 -14 -14 -13 -13
-9 -9 -11 -11 -11 -11 -11 -10 -11 -11 -11 -10 -10 -10 -11 -11 -11 -11 -12 -12 -12 -12 -11 -12 -12 -12 -12 -12 -12 -12 -12 -13 -13 -13 -13 -13 -13 -14 -15 -17 -18 -17 -16 -15 -15 -15 -14 -14 -15
-9 -10 -10 -11 -11 -11 -11 -11 -11 -11 -11 -11 -11 -11 -11 -11 -11 -11 -12 -12 -11 -11 -11 -11 -11 -12 -12 -12 -12 -12 -13 -13 -13 -13 -13 -14 -14 -15 -16 -17 -18 -17 -16 -16 -16 -15 -15 -15 -15
-9 -11 -10 -10 -11 -11 -11 -11 -11 -11 -10 -10 -11 -10 -10 -11 -11 -11 -12 -12 -12 -11 -11 -11 -11 -12 -12 -12 -12 -12 -13 -13 -13 -13 -13 -14 -14 -15 -16 -16 -17 -17 -17 -16 -16 -16 -16 -15 -15
-11 -11 -10 -10 -10 -11 -11 -11 -11 -11 -11 -11 -11 -10 -11 -11 -11 -11 -12 -12 -11 -11 -11 -12 -12 -12 -12 -12 -12 -13 -13 -13 -13 -13 -14 -14 -14 -15 -16 -16 -17 -17 -17 -16 -16 -16 -15 -15 -15
-11 -11 -11 -10 -10 -10 -11 -11 -11 -11 -11 -11 -11 -11 -10 -11 -11 -11 -12 -11 -11 -12 -12 -12 -12 -12 -12 -12 -12 -13 -13 -13 -14 -14 -14 -14 -14 -15 -16 -16 -16 -16 -16 -16 -16 -16 -15 -15 -15
-12 -11 -11 -11 -11 -11 -10 -11 -11 -11 -11 -10 -10 -10 -11 -11 -11 -11 -11 -11 -12 -12 -12 -12 -12 -12 -12 -12 -13 -13 -13 -13 -14 -14 -14 -14 -14 -15 -15 -15 -16 -16 -16 -16 -16 -15 -15 -15 -15
-12 -12 -12 -12 -12 -12 -11 -11 -11 -11 -11 -11 -10 -11 -11 -11 -11 -11 -12 -11 -12 -12 -12 -12 -12 -12 -12 -12 -13 -13 -13 -14 -14 -14 -14 -14 -14 -14 -15 -15 -15 -15 -15 -15 -15 -15 -15 -15 -15
-12 -12 -12 -12 -12 -12 -12 -11 -11 -11 -11 -11 -11 -10 -10 -11 -11 -11 -12 -12 -12 -12 -12 -12 -12 -12 -13 -13 -13 -13 -13 -14 -14 -14 -14 -14 -14 -14 -15 -15 -15 -15 -15 -15 -15 -15 -15 -15 -15
-12 -12 -12 -12 -12 -12 -12 -11 -11 -11 -11 -10 -10 -10 -11 -11 -11 -12 -12 -12 -12 -12 -12 -12 -12 -13 -13 -13 -13 -13 -14 -14 -14 -14 -14 -15 -15 -15 -15 -15 -15 -15 -15 -15 -15 -15 -15 -15 -15
Height
5908 5907 5904 5905 5908 5905 5904 5906 5905 5902 5897 5892 5894 5897 5898 5898 5897 5896 5895 5895 5895 5894 5891 5890 5890 5890 5891 5892 5892 5892 5893 5894 5895 5894 5893 5893 5892 5891 5890 5890 5889 5888 5887 5886 5885 5885 5884 5884 5884
5907 5906 5904 5902 5902 5905 5906 5907 5903 5901 5894 5887 5891 5896 5896 5894 5894 5893 5894 5893 5893 5892 5891 5889 5889 5889 5890 5891 5891 5891 5891 5891 5891 5892 5891 5890 5889 5888 5888 5887 5886 5885 5884 5883 5882 5881 5880 5880 5879
5906 5905 5903 5900 5902 5903 5904 5903 5899 5898 5893 5884 5890 5893 5896 5898 5894 5895 5893 5892 5891 5890 5890 5890 5889 5888 5889 5890 5889 5889 5889 5888 5888 5889 5888 5888 5886 5885 5884 5883 5883 5882 5880 5879 5878 5877 5876 5876 5875
5904 5903 5902 5901 5901 5902 5902 5900 5899 5895 5889 5889 5885 5889 5896 5897 5892 5894 5893 5890 5890 5889 5889 5889 5890 5889 5888 5888 5888 5888 5887 5886 5886 5887 5886 5884 5883 5881 5880 5879 5879 5877 5876 5875 5874 5872 5871 5870 5870
5901 5900 5900 5899 5898 5900 5899 5897 5900 5894 5889 5889 5891 5889 5895 5896 5892 5892 5892 5889 5888 5888 5887 5887 5887 5887 5887 5886 5886 5886 5884 5884 5884 5883 5882 5881 5879 5877 5875 5875 5873 5872 5871 5869 5868 5866 5866 5865 5864
5899 5900 5898 5898 5896 5897 5895 5895 5898 5895 5895 5895 5894 5891 5894 5895 5893 5890 5890 5888 5886 5886 5886 5885 5886 5885 5885 5885 5883 5882 5881 5881 5881 5879 5877 5876 5874 5872 5870 5869 5867 5865 5864 5863 5861 5860 5859 5857 5857
5896 5899 5899 5898 5897 5893 5892 5892 5891 5895 5894 5891 5893 5895 5895 5898 5894 5891 5890 5886 5886 5885 5885 5886 5886 5885 5884 5882 5881 5880 5878 5876 5876 5875 5872 5872 5869 5866 5864 5863 5861 5859 5858 5856 5854 5853 5853 5851 5849
5894 5898 5900 5899 5893 5890 5886 5886 5890 5894 5891 5892 5894 5892 5893 5896 5892 5891 5888 5886 5884 5886 5886 5886 5885 5884 5883 5881 5880 5878 5875 5874 5873 5871 5869 5867 5865 5863 5859 5857 5856 5855 5853 5850 5848 5847 5846 5844 5842
5891 5896 5898 5898 5893 5887 5882 5884 5890 5893 5893 5893 5893 5893 5892 5889 5889 5889 5889 5887 5885 5885 5885 5884 5882 5880 5879 5877 5876 5875 5873 5870 5868 5868 5867 5862 5860 5858 5856 5853 5850 5848 5847 5844 5842 5841 5840 5838 5836
5888 5892 5895 5894 5890 5883 5883 5885 5889 5889 5891 5891 5890 5889 5891 5888 5888 5889 5888 5886 5886 5884 5883 5882 5880 5879 5877 5875 5875 5873 5870 5866 5862 5860 5859 5856 5853 5851 5848 5847 5845 5842 5839 5837 5835 5835 5833 5832 5830
5885 5888 5889 5890 5886 5881 5882 5884 5888 5890 5890 5893 5889 5888 5886 5887 5887 5885 5884 5884 5884 5883 5881 5880 5878 5877 5876 5875 5874 5872 5869 5866 5861 5857 5855 5850 5846 5843 5840 5838 5837 5835 5832 5829 5827 5826 5824 5822 5820
5881 5883 5885 5884 5878 5876 5879 5882 5886 5886 5887 5887 5888 5888 5888 5887 5884 5880 5880 5878 5877 5876 5876 5876 5876 5875 5873 5870 5868 5866 5864 5861 5855 5851 5848 5844 5840 5837 5834 5831 5829 5826 5823 5821 5820 5818 5815 5811 5809
5877 5879 5880 5879 5874 5875 5878 5880 5882 5884 5883 5882 5883 5887 5887 5885 5883 5879 5878 5876 5874 5872 5872 5870 5869 5868 5866 5865 5863 5860 5857 5854 5849 5844 5841 5838 5833 5829 5826 5823 5820 5817 5813 5811 5809 5807 5804 5800 5798
5872 5874 5875 5874 5872 5874 5876 5877 5877 5879 5878 5878 5881 5885 5886 5885 5881 5877 5876 5875 5873 5871 5869 5867 5866 5864 5862 5859 5857 5853 5849 5847 5843 5838 5834 5831 5826 5821 5817 5814 5811 5807 5802 5799 5796 5795 5792 5789 5787
5870 5873 5874 5872 5867 5872 5873 5872 5873 5875 5875 5878 5879 5881 5881 5878 5878 5875 5874 5874 5872 5870 5868 5866 5863 5861 5858 5855 5851 5848 5844 5840 5836 5831 5825 5821 5817 5812 5807 5802 5799 5795 5790 5788 5784 5782 5779 5776 5774
5867 5871 5874 5872 5866 5869 5871 5870 5873 5874 5876 5877 5876 5879 5878 5877 5876 5874 5873 5871 5869 5868 5865 5863 5860 5857 5854 5850 5846 5841 5837 5832 5828 5823 5818 5812 5807 5802 5797 5791 5786 5782 5778 5775 5772 5770 5765 5763 5762
5864 5866 5869 5870 5872 5870 5869 5870 5872 5873 5874 5872 5872 5873 5875 5875 5874 5872 5869 5867 5866 5863 5861 5858 5856 5853 5849 5845 5840 5835 5831 5825 5820 5816 5811 5804 5797 5790 5784 5778 5773 5768 5764 5760 5758 5754 5752 5751 5749
5861 5861 5863 5866 5868 5866 5867 5868 5868 5870 5870 5870 5869 5867 5868 5869 5868 5867 5866 5863 5860 5858 5855 5852 5850 5847 5842 5838 5833 5827 5822 5817 5812 5807 5801 5794 5787 5781 5773 5765 5759 5754 5750 5746 5743 5740 5740 5740 5736
5855 5855 5858 5858 5860 5861 5860 5862 5863 5863 5862 5864 5862 5863 5862 5861 5863 5862 5860 5859 5856 5854 5850 5847 5844 5840 5835 5831 5826 5820 5814 5809 5803 5797 5790 5783 5776 5768 5760 5753 5745 5740 5735 5732 5729 5727 5727 5727 5724
5848 5851 5854 5855 5857 5857 5857 5857 5858 5858 5858 5856 5857 5857 5856 5855 5856 5856 5854 5852 5850 5847 5845 5841 5837 5833 5829 5824 5819 5813 5808 5803 5796 5788 5780 5772 5764 5756 5747 5738 5730 5724 5720 5718 5716 5715 5716 5716 5713
5844 5846 5849 5850 5851 5848 5850 5850 5852 5854 5853 5851 5850 5847 5847 5847 5850 5850 5847 5846 5843 5840 5838 5835 5832 5827 5822 5817 5812 5807 5802 5796 5788 5780 5771 5763 5754 5743 5732 5721 5712 5709 5707 5707 5706 5706 5706 5706 5705
5839 5843 5845 5845 5846 5847 5846 5845 5848 5848 5848 5848 5848 5848 5845 5847 5845 5848 5841 5840 5837 5834 5832 5829 5825 5819 5815 5812 5806 5801 5794 5787 5780 5773 5765 5756 5746 5733 5719 5706 5699 5696 5697 5699 5699 5699 5699 5700 5699
5836 5837 5840 5841 5841 5842 5842 5842 5844 5846 5844 5844 5843 5845 5844 5843 5845 5841 5838 5836 5833 5830 5826 5823 5819 5814 5810 5806 5801 5795 5788 5781 5774 5766 5759 5749 5739 5727 5715 5706 5699 5695 5694 5695 5695 5696 5696 5697 5697
5829 5832 5835 5836 5836 5836 5838 5838 5838 5840 5843 5842 5841 5839 5841 5842 5842 5839 5835 5832 5826 5822 5818 5816 5813 5809 5804 5800 5795 5789 5782 5775 5767 5761 5754 5745 5735 5725 5715 5708 5703 5699 5697 5696 5695 5695 5695 5695 5694
5823 5825 5828 5830 5830 5832 5834 5834 5833 5837 5838 5839 5836 5834 5837 5837 5834 5832 5829 5824 5821 5816 5813 5811 5807 5803 5799 5794 5788 5783 5776 5769 5762 5757 5750 5742 5733 5725 5717 5710 5706 5702 5700 5698 5697 5696 5695 5694 5692
5819 5821 5822 5823 5825 5828 5828 5827 5828 5829 5831 5831 5831 5832 5835 5834 5830 5825 5823 5822 5816 5810 5808 5806 5802 5797 5793 5788 5783 5777 5770 5763 5758 5753 5746 5739 5732 5726 5719 5713 5708 5705 5703 5700 5698 5696 5694 5692 5691
5814 5813 5820 5819 5820 5821 5823 5822 5822 5824 5824 5825 5824 5826 5829 5829 5824 5820 5818 5812 5809 5807 5804 5800 5795 5791 5787 5782 5777 5771 5764 5759 5753 5748 5742 5737 5731 5725 5720 5714 5710 5706 5703 5701 5699 5696 5695 5692 5689
5804 5812 5813 5812 5813 5814 5814 5814 5817 5818 5815 5820 5820 5820 5821 5819 5817 5816 5810 5807 5805 5802 5798 5795 5791 5786 5781 5776 5771 5765 5760 5754 5749 5744 5739 5734 5729 5724 5720 5716 5711 5707 5704 5702 5700 5697 5694 5690 5687
5801 5801 5805 5807 5809 5808 5808 5806 5811 5811 5814 5813 5813 5814 5813 5815 5814 5811 5806 5801 5799 5796 5793 5790 5784 5779 5775 5770 5765 5760 5754 5749 5744 5740 5735 5732 5727 5723 5719 5716 5711 5708 5704 5701 5698 5695 5692 5689 5685
5794 5797 5801 5800 5803 5802 5802 5802 5805 5805 5806 5806 5807 5809 5809 5812 5808 5807 5805 5798 5793 5791 5787 5784 5777 5773 5769 5765 5760 5755 5750 5744 5739 5736 5732 5728 5725 5721 5717 5714 5710 5706 5702 5699 5696 5693 5690 5686 5682
Wind_Speed
10 9 7 3 5 5 6 11 4 8 5 5 10 14 13 10 9 10 9 7 10 11 6 7 10 9 13 14 17 18 18 19 21 22 21 21 21 22 22 22 22 22 22 23 24 25 25 26 26
12 11 9 4 12 8 14 11 17 16 17 8 8 6 8 11 9 7 6 6 9 12 12 7 6 8 10 12 13 15 17 19 18 20 21 21 22 23 23 24 23 24 24 24 25 25 26 27 28
13 13 13 11 8 11 13 20 19 25 13 6 10 9 7 5 6 5 5 6 6 7 8 9 6 3 3 6 7 8 9 10 12 14 16 17 18 19 19 20 20 21 22 24 25 27 28 29 29
14 14 14 13 12 13 14 22 33 32 24 3 11 13 7 5 8 8 6 5 4 4 5 4 5 2 2 4 6 7 9 11 13 14 16 17 20 19 21 21 22 23 23 25 26 27 28 29 31
15 14 14 13 15 12 17 23 27 39 7 22 10 9 9 7 8 12 10 6 5 5 6 7 7 7 8 8 9 11 12 14 15 16 18 19 19 22 24 25 25 28 30 28 29 29 31 31 32
17 13 14 13 17 16 13 20 21 26 26 6 18 12 9 10 14 12 10 9 6 5 6 6 8 9 10 11 12 13 14 16 18 19 20 23 23 26 27 27 28 28 29 30 31 32 34 34 35
20 14 12 14 20 17 11 14 17 19 26 22 11 15 8 5 7 11 12 10 10 9 8 8 8 8 8 7 8 10 11 12 13 14 16 18 19 20 23 24 25 27 27 29 30 30 32 33 35
20 12 11 12 18 10 8 11 15 23 16 5 7 14 11 7 7 10 10 10 9 9 10 8 8 7 8 10 11 12 14 16 16 14 16 19 19 20 21 23 24 25 26 27 30 30 30 31 32
21 16 13 12 15 19 11 9 12 18 5 7 14 17 15 13 14 13 7 6 8 7 7 8 10 12 14 15 17 17 18 21 23 20 21 26 26 25 25 26 26 25 25 26 28 27 27 28 29
24 19 14 16 14 20 12 8 11 22 22 18 20 22 19 13 13 12 10 7 6 8 10 9 12 13 15 17 18 19 22 25 28 30 28 28 29 29 28 28 27 28 31 31 32 31 31 31 31
24 15 14 24 18 19 18 7 14 14 22 17 22 16 16 16 15 14 13 13 11 9 10 11 13 14 15 16 18 19 21 22 25 28 29 32 34 34 35 35 34 34 35 36 36 35 35 37 37
21 15 17 30 27 25 16 10 17 20 27 18 17 20 25 17 15 14 14 14 14 14 15 15 15 17 18 20 23 24 24 25 28 31 32 33 34 36 38 39 40 41 43 43 42 42 41 42 43
18 19 21 34 34 34 25 20 22 22 24 23 22 27 24 17 14 12 14 15 16 17 18 20 21 22 22 23 26 29 29 29 32 36 37 37 38 40 41 42 44 46 47 47 47 47 47 47 47
22 21 23 30 35 32 31 29 25 24 23 27 25 25 21 15 14 12 14 16 16 17 17 19 21 23 25 27 31 33 34 33 36 38 39 39 41 43 46 47 47 47 49 50 50 49 49 50 51
20 20 22 21 27 25 24 26 25 26 26 25 21 21 19 14 15 14 15 17 19 17 17 19 23 24 27 30 32 34 36 38 40 41 44 45 45 46 47 49 49 50 51 51 51 50 50 49 48
20 19 16 19 28 21 21 24 20 20 21 20 21 21 19 17 16 16 16 18 20 19 20 22 24 27 28 31 33 37 39 41 42 44 45 46 47 48 50 52 53 53 53 53 53 52 52 52 49
19 16 11 16 16 19 20 18 15 16 17 17 23 25 22 19 17 18 18 19 20 21 23 25 26 28 30 34 37 39 40 43 44 43 45 47 51 53 54 56 56 56 55 53 51 49 48 46 43
18 15 13 6 4 12 15 17 18 18 23 20 17 20 21 20 18 20 19 21 23 23 25 27 29 31 33 36 40 42 43 42 43 45 48 50 52 53 54 57 57 56 54 52 49 47 44 41 40
17 20 21 20 14 15 20 22 24 27 23 24 18 22 23 24 23 21 18 22 25 26 29 31 33 35 37 39 42 44 43 44 46 48 49 52 53 53 54 54 54 53 51 49 47 45 42 39 39
23 22 19 18 14 21 22 18 24 28 28 30 30 27 29 24 22 18 20 22 25 28 32 33 35 36 39 42 43 43 43 45 46 48 51 52 51 53 55 57 55 50 44 40 38 37 35 34 35
23 24 19 15 18 21 15 23 27 27 28 27 28 28 25 26 16 17 17 23 27 29 32 33 34 36 39 41 41 42 43 43 45 48 47 47 51 54 57 57 51 40 34 29 27 25 25 25 26
25 25 21 17 15 17 26 27 22 27 27 29 34 29 40 23 15 19 21 23 27 29 30 29 32 37 39 37 39 41 42 42 44 42 41 47 50 51 53 45 33 25 21 19 19 18 17 16 13
22 30 28 24 23 26 25 20 26 26 26 28 25 27 28 22 19 19 18 18 22 27 30 32 35 36 33 35 38 39 39 42 40 37 40 43 45 43 40 33 24 16 12 12 13 11 8 6 6
24 33 30 34 30 31 22 26 28 27 28 27 28 31 24 21 25 11 10 21 26 29 32 33 31 30 31 35 38 37 38 40 36 34 36 37 39 36 31 27 23 17 11 8 6 4 4 7 10
23 24 29 33 40 38 33 33 36 34 32 30 33 30 25 23 27 18 17 24 28 29 28 25 27 30 33 36 35 36 38 37 32 31 32 31 31 29 26 23 20 16 11 8 7 8 9 9 9
22 23 27 31 33 39 41 40 37 36 27 26 25 26 17 19 22 15 22 29 27 23 24 25 28 31 33 34 35 35 37 35 30 29 28 27 26 24 21 20 18 16 14 13 12 11 10 10 9
16 29 25 31 33 33 33 38 37 33 30 24 20 16 18 16 18 23 27 28 21 23 25 27 29 32 33 33 34 35 37 33 27 27 25 23 22 21 19 18 17 15 15 13 12 11 11 12 13
22 20 29 29 37 37 36 39 31 28 31 23 22 25 32 25 24 32 26 29 24 25 27 29 30 33 33 33 33 34 36 30 25 24 22 19 17 17 17 16 15 14 13 12 12 12 14 17 18
26 28 31 27 31 32 38 43 36 34 32 33 36 39 36 29 28 27 27 27 27 26 28 29 30 31 31 32 32 35 35 30 24 23 20 17 16 14 14 14 14 14 15 16 18 18 19 19 21
30 28 32 34 35 34 39 41 38 37 35 34 33 34 32 35 25 17 28 24 26 26 29 29 31 31 31 32 32 35 33 28 23 21 18 16 14 13 14 13 14 16 18 20 21 22 22 23 25
Wind_Direction
226 233 244 266 309 336 318 315 291 290 249 108 23 336 325 339 347 317 311 314 289 299 312 271 263 263 257 260 262 265 270 274 273 271 271 274 275 275 278 279 281 283 282 280 278 276 272 270 269
215 222 222 206 278 320 327 335 310 319 266 155 59 5 325 355 335 320 322 294 291 300 309 311 288 265 262 270 272 277 277 278 278 275 275 274 276 279 280 282 283 284 283 280 277 274 273 270 268
211 211 225 233 286 314 347 345 322 311 251 351 56 14 15 359 293 295 297 300 301 302 317 338 345 333 297 276 269 270 273 277 280 281 286 286 287 286 285 287 286 286 284 282 279 277 274 271 269
212 218 225 243 252 282 332 339 350 330 285 147 54 25 3 345 312 323 338 328 331 354 341 333 321 323 272 280 288 291 291 289 286 292 292 293 290 294 293 291 294 291 289 288 283 278 277 275 273
217 220 231 251 268 290 312 360 1 330 329 359 21 22 332 353 333 342 336 344 0 351 331 327 323 318 321 316 305 294 291 293 292 297 291 287 288 286 286 286 287 286 288 283 282 280 278 276 273
219 222 235 272 278 289 323 358 343 335 347 19 350 352 333 344 350 335 327 342 2 355 342 334 336 336 330 316 306 303 302 295 291 288 284 285 287 285 285 284 280 281 281 280 279 278 276 275 275
223 213 241 280 275 293 330 332 327 331 337 325 333 313 322 355 340 324 339 343 343 351 348 357 356 354 343 351 336 331 323 313 308 303 299 292 293 291 291 287 286 285 285 283 281 280 279 277 276
229 228 262 261 293 305 339 319 330 339 328 20 320 306 320 347 336 345 349 347 336 325 328 343 355 346 340 332 320 323 318 308 309 307 304 301 298 296 293 291 289 286 284 283 281 282 284 284 283
242 250 243 246 265 271 291 319 326 4 23 22 356 330 324 330 344 356 352 309 295 310 324 335 343 336 336 333 333 327 319 313 309 305 303 299 298 294 288 288 289 288 286 284 284 286 286 286 285
251 250 250 205 266 265 269 334 340 313 282 325 337 318 320 324 332 330 326 304 296 304 315 329 334 339 340 336 330 329 329 326 319 317 314 306 302 299 295 292 291 290 290 288 287 288 288 287 286
253 245 207 190 231 257 255 302 294 289 263 317 338 297 319 312 313 325 321 312 307 299 302 313 323 332 330 322 319 319 317 314 314 314 311 307 304 302 299 297 296 294 291 291 292 293 293 291 287
241 218 196 190 219 244 254 263 279 280 291 317 316 306 305 298 309 324 318 319 321 317 313 312 312 315 319 321 320 317 314 312 308 310 310 308 304 298 296 294 293 292 291 290 289 291 289 287 286
221 204 194 191 219 236 248 254 259 273 287 310 309 299 297 297 312 319 324 330 328 318 316 318 319 318 318 318 318 319 318 318 315 311 309 306 301 298 295 293 292 291 290 289 289 288 287 286 284
207 202 203 207 222 238 246 255 272 281 293 302 298 284 284 298 309 317 324 327 321 316 313 311 310 310 312 314 316 317 316 315 310 308 305 302 298 295 295 295 294 292 290 290 288 286 283 281 281
217 214 214 222 240 248 262 271 280 284 292 292 286 287 299 303 311 309 321 321 316 310 299 303 307 307 307 309 310 314 312 309 306 306 305 303 301 301 300 297 294 292 290 289 288 288 287 286 285
229 230 232 224 234 253 263 271 279 280 293 293 287 285 293 293 297 301 306 307 304 299 295 299 304 306 305 306 307 308 310 311 309 305 304 304 303 301 299 297 296 294 292 290 289 288 286 285 284
237 248 247 227 231 246 251 258 265 278 288 293 289 286 293 290 287 295 297 296 294 296 300 304 306 305 308 308 308 308 307 306 305 307 307 306 304 303 302 299 297 295 292 291 289 287 285 285 286
250 243 214 145 211 263 258 265 265 293 308 280 306 289 289 293 298 304 294 292 297 301 303 305 307 308 307 307 307 307 306 308 311 310 310 308 306 304 302 300 297 294 291 289 287 285 284 284 281
233 241 239 200 188 244 271 282 303 304 287 280 295 295 292 296 303 297 290 293 297 301 301 304 306 306 305 306 307 306 309 312 313 313 311 310 310 308 305 301 298 294 289 285 283 281 281 281 277
222 224 232 199 208 256 259 274 282 285 282 282 297 293 286 279 275 278 289 288 289 293 292 294 297 300 303 304 306 308 310 312 313 314 315 315 313 312 309 305 299 293 288 284 278 276 277 277 277
225 228 215 223 232 243 245 250 256 273 278 275 284 272 267 279 244 253 278 283 286 290 293 295 297 300 300 304 307 308 311 313 317 319 318 319 320 318 314 308 299 289 282 280 281 278 276 278 280
218 220 199 211 233 252 270 253 265 277 281 290 300 302 292 342 326 268 280 293 289 296 296 298 299 298 302 307 307 310 314 318 320 319 321 325 327 326 328 330 312 292 278 279 283 282 280 284 293
220 207 204 219 236 241 258 265 277 281 287 292 295 295 300 328 305 282 285 297 302 304 302 302 303 303 305 306 309 312 317 318 320 321 327 330 333 337 346 345 333 316 298 292 292 290 290 295 296
218 212 215 209 232 240 251 258 263 269 280 278 284 289 299 309 309 287 296 311 315 313 305 301 302 303 307 310 312 316 317 321 321 323 329 337 341 347 352 353 352 351 344 346 334 314 301 317 314
220 227 224 222 225 233 234 243 258 266 276 288 286 285 288 305 295 320 319 322 319 309 304 306 306 310 312 311 314 316 321 322 320 325 332 342 346 352 3 7 9 8 7 6 354 339 338 336 329
233 227 223 223 226 228 239 250 263 269 273 273 292 270 290 303 314 324 320 316 317 310 310 311 312 313 313 313 315 320 324 323 319 324 332 344 352 356 5 10 11 10 5 2 357 354 354 354 350
238 231 220 224 234 241 240 246 259 265 271 286 296 288 287 305 319 325 318 323 319 312 314 314 316 314 313 314 319 322 326 321 318 324 332 339 351 353 358 5 7 5 7 6 5 360 356 349 346
210 222 221 225 232 242 247 248 258 268 278 286 288 288 298 317 323 329 329 320 315 314 314 317 315 313 314 318 320 325 326 321 316 322 331 336 349 358 2 7 7 4 4 359 357 357 356 351 342
218 207 220 230 242 249 243 251 259 267 275 281 285 289 297 310 299 315 329 313 309 310 312 316 314 314 316 319 322 326 326 321 315 317 324 331 336 344 351 355 355 359 359 356 353 349 347 339 330
218 214 225 225 234 248 243 249 258 265 271 281 284 297 300 298 316 301 319 313 309 315 316 319 316 317 318 321 323 323 324 320 308 310 320 323 324 331 337 347 347 354 352 346 342 337 332 329 325